• In Belgien
  • Länderverzeichnis
  • Für 7 Tage
  • Wassertemperatur
  • Satellitenkarten
  • Wetterkarte
  • Widgets
  • user-avatar
    Anmelden

    Stündliche Wetter Canberra

    Heute, 17 Juli, Dienstag

    Zeit Temperatur Niederschläge Wind Luftdruck Luftfeuchtigkeit
    00:00 +2°C° 0 mm 2 m/S 706 mmHg 75%
    01:00 +2°C° 0 mm 2 m/S 706 mmHg 75%
    02:00 +2°C° 0 mm 2 m/S 706 mmHg 75%
    03:00 +2°C° 0 mm 2 m/S 706 mmHg 76%
    04:00 +2°C° 0 mm 2 m/S 706 mmHg 76%
    05:00 +1°C° 0 mm 2 m/S 706 mmHg 76%
    06:00 +1°C° 0 mm 2 m/S 706 mmHg 77%
    07:00 +1°C° 0 mm 2 m/S 706 mmHg 77%
    08:00 +3°C° 0 mm 3 m/S 706 mmHg 66%
    09:00 +5°C° 0 mm 4 m/S 707 mmHg 56%
    10:00 +8°C° 0 mm 4 m/S 707 mmHg 46%
    11:00 +9°C° 0 mm 5 m/S 706 mmHg 41%
    12:00 +11°C° 0 mm 6 m/S 706 mmHg 37%
    13:00 +12°C° 0 mm 7 m/S 705 mmHg 33%
    14:00 +12°C° 0 mm 7 m/S 705 mmHg 37%
    15:00 +11°C° 0 mm 6 m/S 704 mmHg 41%
    16:00 +11°C° 0 mm 6 m/S 704 mmHg 45%
    17:00 +10°C° 0 mm 6 m/S 704 mmHg 47%
    18:00 +9°C° 0 mm 6 m/S 704 mmHg 49%
    19:00 +9°C° 0 mm 6 m/S 703 mmHg 51%
    20:00 +9°C° 0,1 mm 6 m/S 704 mmHg 54%
    21:00 +9°C° 0,1 mm 7 m/S 704 mmHg 56%
    22:00 +9°C° 0,1 mm 7 m/S 705 mmHg 59%
    23:00 +8°C° 0 mm 7 m/S 705 mmHg 64%

    Morgen, 18 Juli, Mittwoch

    Zeit Temperatur Niederschläge Wind Luftdruck Luftfeuchtigkeit
    00:00 +7°C° 0 mm 6 m/S 706 mmHg 69%
    01:00 +4°C° 0 mm 6 m/S 706 mmHg 74%
    02:00 +5°C° 0 mm 5 m/S 706 mmHg 74%
    03:00 +3°C° 0 mm 5 m/S 707 mmHg 74%
    04:00 +3°C° 0 mm 4 m/S 707 mmHg 74%
    05:00 +3°C° 0 mm 4 m/S 707 mmHg 76%
    06:00 +2°C° 0 mm 3 m/S 708 mmHg 78%
    07:00 +1°C° 0 mm 3 m/S 708 mmHg 80%
    08:00 +3°C° 0 mm 3 m/S 709 mmHg 72%
    09:00 +5°C° 0 mm 3 m/S 710 mmHg 64%
    10:00 +8°C° 0 mm 3 m/S 710 mmHg 56%
    11:00 +8°C° 0 mm 4 m/S 710 mmHg 53%
    12:00 +10°C° 0 mm 4 m/S 710 mmHg 50%
    13:00 +11°C° 0 mm 4 m/S 709 mmHg 47%
    14:00 +10°C° 0 mm 4 m/S 709 mmHg 51%
    15:00 +10°C° 0 mm 4 m/S 709 mmHg 54%
    16:00 +8°C° 0 mm 4 m/S 709 mmHg 58%
    17:00 +7°C° 0 mm 4 m/S 709 mmHg 65%
    18:00 +5°C° 0 mm 3 m/S 709 mmHg 73%
    19:00 +4°C° 0 mm 3 m/S 709 mmHg 80%
    20:00 +3°C° 0 mm 3 m/S 709 mmHg 80%
    21:00 +3°C° 0 mm 3 m/S 709 mmHg 79%
    22:00 +3°C° 0 mm 3 m/S 709 mmHg 79%
    23:00 +3°C° 0 mm 3 m/S 709 mmHg 79%

    übermorgen, 19 Juli, Donnerstag

    Zeit Temperatur Niederschläge Wind Luftdruck Luftfeuchtigkeit
    00:00 +3°C° 0 mm 4 m/S 709 mmHg 78%
    01:00 +3°C° 0 mm 4 m/S 709 mmHg 78%
    02:00 +3°C° 0 mm 4 m/S 708 mmHg 78%
    03:00 +3°C° 0 mm 3 m/S 708 mmHg 78%
    04:00 +2°C° 0 mm 3 m/S 707 mmHg 78%
    05:00 +2°C° 0 mm 3 m/S 707 mmHg 79%
    06:00 +2°C° 0 mm 3 m/S 707 mmHg 79%
    07:00 +2°C° 0 mm 3 m/S 707 mmHg 80%
    08:00 +4°C° 0 mm 4 m/S 707 mmHg 71%
    09:00 +6°C° 0 mm 4 m/S 707 mmHg 63%
    10:00 +8°C° 0 mm 5 m/S 707 mmHg 54%
    11:00 +10°C° 0 mm 5 m/S 707 mmHg 51%
    12:00 +11°C° 0 mm 6 m/S 706 mmHg 48%
    13:00 +13°C° 0 mm 6 m/S 705 mmHg 45%
    14:00 +13°C° 0 mm 6 m/S 705 mmHg 47%
    15:00 +13°C° 0 mm 6 m/S 705 mmHg 50%
    16:00 +12°C° 0 mm 5 m/S 704 mmHg 52%
    17:00 +10°C° 0 mm 5 m/S 704 mmHg 57%
    18:00 +10°C° 0 mm 4 m/S 704 mmHg 62%
    19:00 +7°C° 0 mm 4 m/S 704 mmHg 67%
    20:00 +7°C° 0 mm 4 m/S 703 mmHg 64%
    21:00 +7°C° 0 mm 4 m/S 703 mmHg 61%
    22:00 +7°C° 0 mm 4 m/S 703 mmHg 59%
    23:00 +7°C° 0,1 mm 4 m/S 702 mmHg 60%

    20 Juli, Freitag

    Zeit Temperatur Niederschläge Wind Luftdruck Luftfeuchtigkeit
    00:00 +7°C° 0,1 mm 4 m/S 701 mmHg 61%
    01:00 +7°C° 0,1 mm 4 m/S 700 mmHg 62%
    02:00 +7°C° 0,3 mm 4 m/S 700 mmHg 67%
    03:00 +7°C° 0,3 mm 5 m/S 699 mmHg 73%
    04:00 +7°C° 0,3 mm 5 m/S 699 mmHg 78%
    05:00 +5°C° 0,8 mm 6 m/S 699 mmHg 82%
    06:00 +4°C° 0,8 mm 6 m/S 699 mmHg 85%
    07:00 +3°C° 0,8 mm 6 m/S 700 mmHg 89%
    08:00 +3°C° 0,2 mm 6 m/S 701 mmHg 84%
    09:00 +3°C° 0,2 mm 7 m/S 701 mmHg 79%
    10:00 +3°C° 0,2 mm 7 m/S 702 mmHg 74%
    11:00 +4°C° 0,1 mm 7 m/S 702 mmHg 69%
    12:00 +4°C° 0,1 mm 7 m/S 702 mmHg 63%
    13:00 +4°C° 0,1 mm 8 m/S 703 mmHg 58%
    14:00 +4°C° 0,1 mm 7 m/S 703 mmHg 60%
    15:00 +4°C° 0,1 mm 7 m/S 703 mmHg 62%
    16:00 +4°C° 0,1 mm 7 m/S 703 mmHg 63%
    17:00 +3°C° 0 mm 6 m/S 704 mmHg 67%
    18:00 +3°C° 0 mm 6 m/S 705 mmHg 71%
    19:00 +2°C° 0 mm 5 m/S 705 mmHg 74%
    20:00 +2°C° 0 mm 5 m/S 706 mmHg 74%
    21:00 +2°C° 0 mm 5 m/S 706 mmHg 75%
    22:00 +2°C° 0 mm 5 m/S 707 mmHg 75%
    23:00 +2°C° 0 mm 5 m/S 707 mmHg 77%

    21 Juli, Samstag

    Zeit Temperatur Niederschläge Wind Luftdruck Luftfeuchtigkeit
    00:00 +3°C° 0 mm 4 m/S 707 mmHg 79%
    01:00 +1°C° 0 mm 4 m/S 707 mmHg 81%
    02:00 +1°C° 0 mm 4 m/S 708 mmHg 82%
    03:00 +1°C° 0 mm 4 m/S 708 mmHg 83%
    04:00 +1°C° 0 mm 4 m/S 708 mmHg 84%
    05:00 0°C° 0 mm 4 m/S 709 mmHg 85%
    06:00 +1°C° 0 mm 3 m/S 709 mmHg 87%
    07:00 0°C° 0 mm 3 m/S 710 mmHg 88%
    08:00 +1°C° 0 mm 4 m/S 710 mmHg 81%
    09:00 +4°C° 0 mm 4 m/S 711 mmHg 73%
    10:00 +5°C° 0 mm 4 m/S 711 mmHg 65%
    11:00 +6°C° 0 mm 4 m/S 710 mmHg 63%
    12:00 +7°C° 0 mm 5 m/S 710 mmHg 60%
    13:00 +7°C° 0 mm 5 m/S 710 mmHg 57%
    14:00 +7°C° 0 mm 5 m/S 710 mmHg 59%
    15:00 +6°C° 0 mm 4 m/S 709 mmHg 62%
    16:00 +6°C° 0 mm 4 m/S 709 mmHg 64%
    17:00 +4°C° 0 mm 3 m/S 710 mmHg 70%
    18:00 +3°C° 0 mm 3 m/S 710 mmHg 77%
    19:00 +3°C° 0 mm 2 m/S 710 mmHg 83%
    20:00 +3°C° 0 mm 2 m/S 710 mmHg 84%
    21:00 +2°C° 0 mm 2 m/S 711 mmHg 85%
    22:00 +2°C° 0 mm 2 m/S 711 mmHg 86%
    23:00 +2°C° 0 mm 2 m/S 711 mmHg 88%

    22 Juli, Sonntag

    Zeit Temperatur Niederschläge Wind Luftdruck Luftfeuchtigkeit
    00:00 +1°C° 0 mm 2 m/S 711 mmHg 90%
    01:00 +1°C° 0 mm 2 m/S 710 mmHg 91%
    02:00 +1°C° 0 mm 2 m/S 710 mmHg 91%
    03:00 -1°C° 0 mm 2 m/S 710 mmHg 91%
    04:00 +1°C° 0 mm 1 m/S 710 mmHg 92%
    05:00 +1°C° 0 mm 1 m/S 710 mmHg 92%
    06:00 +1°C° 0 mm 1 m/S 710 mmHg 92%
    07:00 +1°C° 0 mm 1 m/S 711 mmHg 92%
    08:00 +2°C° 0 mm 2 m/S 711 mmHg 82%
    09:00 +5°C° 0 mm 2 m/S 711 mmHg 71%
    10:00 +7°C° 0 mm 3 m/S 711 mmHg 61%
    11:00 +8°C° 0 mm 3 m/S 710 mmHg 58%
    12:00 +8°C° 0 mm 4 m/S 710 mmHg 56%
    13:00 +11°C° 0 mm 4 m/S 709 mmHg 53%
    14:00 +10°C° 0 mm 4 m/S 709 mmHg 55%
    15:00 +10°C° 0 mm 4 m/S 709 mmHg 58%
    16:00 +9°C° 0 mm 3 m/S 708 mmHg 60%
    17:00 +7°C° 0 mm 3 m/S 709 mmHg 69%
    18:00 +5°C° 0 mm 2 m/S 709 mmHg 77%
    19:00 +4°C° 0 mm 2 m/S 709 mmHg 86%
    20:00 +3°C° 0 mm 2 m/S 709 mmHg 86%
    21:00 +3°C° 0 mm 2 m/S 709 mmHg 86%
    22:00 +3°C° 0 mm 2 m/S 709 mmHg 86%
    23:00 +3°C° 0 mm 2 m/S 708 mmHg 85%
    Mehr zeigen